Location: Kawakawa
(35.3830°S, 174.0670°E)
Time: 12:06:42
(UTC+13:00)

Daily predictions for brighter satellites

Satellite Brightness Start Highest point End
(mag) Time Altitude Azimuth Time Altitude Azimuth Time Altitude Azimuth
Cosmos 2369 Rocket 3.7 20:03:00 10° SW 20:08:20 40° WNW 20:13:38 10° N
Meteor 1-11 4.4 20:05:05 10° N 20:10:45 57° E 20:16:27 10° SSE
ISS -2.4 20:08:59 10° WNW 20:12:13 42° SW 20:15:28 10° SE
Cosmos 1455 2.2 20:10:09 10° S 20:14:05 72° E 20:17:57 10° NNE
Cosmos 2123 Rocket 4.1 20:07:40 10° S 20:14:05 77° E 20:20:26 10° N
Cosmos 1656 Rocket 3.8 20:11:16 10° SSW 20:17:01 86° WNW 20:22:43 10° NNE
YAOGAN 6 2.7 20:14:58 10° SSE 20:18:42 60° E 20:22:23 10° N
Okean-O 3.3 20:14:55 10° S 20:19:22 62° WSW 20:23:46 10° NNW
Aureole 2 Rocket 3.0 20:17:42 10° S 20:20:06 25° ESE 20:22:14 11° NE
NOAA 12 4.3 20:15:36 10° S 20:20:55 79° WSW 20:26:10 10° NNW
Cosmos 1703 3.7 20:18:48 10° NNW 20:22:40 68° W 20:26:37 10° S
EO 1 Delta rocket 4.4 20:17:14 10° SSE 20:24:05 76° E 20:29:25 10° N
CZ-4 R/B 4.4 20:23:16 10° SSE 20:27:30 76° ENE 20:31:38 10° N
Cosmos 1354 Rocket 4.4 20:22:41 10° NNW 20:27:57 72° WSW 20:33:19 10° SSE
Cosmos 1605 Rocket 4.0 20:25:12 10° N 20:31:19 88° W 20:37:34 10° S
Cosmos 1833 Rocket 4.2 20:28:42 10° NE 20:31:27 14° E 20:34:21 10° ESE
Cosmos 1867 4.3 20:32:59 10° SSW 20:37:59 36° SE 20:41:44 16° ENE
Envisat 3.5 20:32:55 10° S 20:38:02 67° WSW 20:43:05 10° NNW
Cosmos 1340 Rocket 3.0 20:34:25 10° SSW 20:38:25 72° W 20:42:20 10° N
Cosmos 2173 Rocket 4.3 20:43:01 10° NNE 20:48:44 44° E 20:54:32 10° SSE
Cosmos 1777 Rocket 4.2 20:43:58 10° N 20:48:58 48° ENE 20:54:03 10° SSE
Meteor 2-10 Rocket 4.3 20:43:49 10° SSW 20:49:37 63° W 20:55:11 10° N
CZ-2D R/B 3.2 20:49:05 10° SSE 20:52:55 61° E 20:56:43 10° N
Orbus 7S 4.3 20:51:43 10° NW 20:53:55 18° N 20:54:17 17° N
Cosmos 1939 Rocket 2.8 20:50:58 10° SSE 20:54:50 56° E 20:58:41 10° N
CZ-4C R/B 3.0 20:47:58 10° NNW 20:56:17 87° ENE 21:03:41 10° SSE
YAOGAN 1 2.9 20:52:39 10° S 20:57:02 71° WSW 21:01:22 10° NNW
Cosmos 1802 Rocket 4.3 20:53:18 10° NNE 20:59:11 44° E 21:05:04 10° SSE
Cosmos 2082 Rocket 3.8 21:05:23 16° ESE 21:05:23 16° ESE 21:07:14 10° ESE
Cosmos 1869 3.8 21:00:44 10° S 21:04:35 39° E 21:05:39 33° ENE
CSL-04 Rocket 4.0 20:59:52 10° S 21:05:27 74° WSW 21:11:00 10° NNW
Centaur AC-112 3.7 21:03:24 10° WNW 21:07:20 20° NNW 21:08:07 18° N
GPS 2-04 Rocket1 2.2 21:04:20 10° WNW 21:07:50 81° N 21:09:00 40° E
DELTA 2 R/B (1) 4.1 21:02:33 10° W 21:08:07 58° S 21:12:30 17° ESE
Haruka 4.0 20:53:52 10° W 21:08:38 55° NNW 21:11:13 27° NE
Cosmos 1766 Rocket 4.3 21:09:15 31° E 21:09:36 32° E 21:13:36 10° SSE
Cosmos 1892 3.7 21:11:34 29° ESE 21:11:34 29° ESE 21:14:20 10° SSE
PSLV R/B 2.7 21:09:01 10° WSW 21:11:38 68° SSE 21:11:38 68° SSE
Cosmos 2221 3.0 21:07:25 10° SSW 21:11:46 62° W 21:16:00 10° N
DMSP B5D2-2 4.1 21:11:38 13° N 21:16:20 80° WNW 21:21:38 10° SSW
Cosmos 1076 Rocket 4.0 21:12:39 10° NNW 21:16:54 62° W 21:21:12 10° S
Cosmos 2100 Rocket 3.9 21:10:48 10° N 21:16:59 85° E 21:23:19 10° S
Lacrosse 5 rocket 3.1 21:15:13 10° N 21:16:52 20° N 21:16:52 20° N
Ariane Rocket 2.9 21:15:32 10° SSE 21:20:41 75° ENE 21:25:46 10° N
COSMOS 2406 3.2 21:15:55 10° NNW 21:21:37 84° WSW 21:27:22 10° SSE
Okean 3 Rocket 3.5 21:19:49 33° NNE 21:21:37 60° E 21:26:01 10° SSE
USA 229 DEB 3.6 21:15:20 10° SSW 21:22:10 71° ESE 21:25:18 33° NE
USA 229 3.6 21:15:23 10° SSW 21:22:13 70° ESE 21:25:22 33° NE
Cosmos 2058 3.0 21:18:31 10° N 21:22:41 76° W 21:26:54 10° S
Cosmos 1697 Rocket 4.2 21:19:01 10° S 21:23:03 19° ESE 21:23:50 19° ESE
NOAA 11 4.3 21:19:01 10° S 21:24:35 78° WSW 21:30:04 10° NNW
MOS 1 Rocket 4.3 21:24:44 30° ESE 21:24:56 30° ESE 21:29:16 10° S
In-Cosmos 22 Rocket 4.2 21:20:49 10° N 21:26:34 73° E 21:32:27 10° SSE
CZ-4 R/B 4.1 21:23:38 10° SSW 21:26:40 21° WSW 21:29:42 10° WNW
NOSS 3-1 (A) 3.8 21:22:20 10° SSW 21:28:14 42° SE 21:29:46 35° E
Hubble Space Telescope 3.3 21:25:55 10° NNW 21:26:01 10° NNW 21:26:01 10° NNW
FREGAT/IRIS 4.4 21:25:58 10° SSE 21:27:07 21° SSE 21:27:07 21° SSE
Meteor 2-20 Rocket 4.4 21:23:51 10° S 21:30:04 88° E 21:34:00 24° N
USA 215 3.3 21:27:14 10° SE 21:33:40 53° NE 21:40:02 10° NNW
USA 186 3.5 21:30:20 10° SSE 21:31:59 25° SSE 21:31:59 25° SSE
Cosmos 2016 Rocket 3.9 21:28:24 15° N 21:33:51 73° E 21:40:14 10° S
Cosmos 2151 2.8 21:36:43 68° NE 21:37:00 71° E 21:41:18 10° SSE
CZ-2C R/B 2.6 21:39:24 33° N 21:41:50 75° WNW 21:47:05 10° SSW
MOS 1 4.2 21:36:11 10° SSE 21:41:58 72° ENE 21:44:50 31° N
SL-08 R/B 4.4 21:38:54 30° N 21:42:05 71° E 21:48:22 10° S
NOSS 3-1 (C) 3.1 21:36:44 10° SSW 21:42:53 87° SE 21:44:19 53° NE
SJ-6B 3.9 21:39:12 10° SSE 21:41:47 34° SE 21:41:47 34° SE
Atlas 2A Centaur Rocket 3.9 21:12:41 10° WNW 21:44:21 54° N 21:46:52 40° NE
EXPRESS MD2 3.9 21:41:41 10° WSW 21:45:06 59° NW 21:45:50 52° N
Cosmos 1656 3.7 21:50:32 10° SSW 21:56:14 63° ESE 21:56:36 61° E
Cosmos 1356 Rocket 3.9 21:57:07 10° SSW 22:00:59 56° W 22:00:59 56° W
SPOT 3 Rocket 3.6 22:03:12 10° SSE 22:07:46 67° SE 22:07:46 67° SE
NOSS 2-3 (C) 4.3 22:06:16 10° SSW 22:12:32 62° SE 22:12:32 62° SE
Cosmos 1833 Rocket 3.0 22:09:49 14° NNW 22:14:42 64° WSW 22:20:22 10° SSE
Cosmos 1980 Rocket 3.6 22:11:00 10° S 22:14:45 26° SE 22:14:45 26° SE
Resurs 01 Rocket 4.0 22:13:27 10° SSE 22:14:09 14° SSE 22:14:09 14° SSE
Cosmos 1680 Rocket 4.3 22:16:16 10° S 22:20:09 42° SSE 22:20:09 42° SSE
H-2A R/B 2.4 22:18:57 10° S 22:23:03 59° S 22:23:03 59° S
Tsikada Rocket 3.9 22:20:17 10° S 22:26:32 81° W 22:26:44 79° NW
Mayak 1.5 22:30:32 12° SSE 22:30:32 12° SSE 22:31:00 10° SSE
ATLAS CENTAUR Rocket 3.6 22:00:36 10° W 22:37:54 59° N 22:38:39 58° N
Thor Agena Rocket 4.5 22:45:28 44° SW 22:45:28 44° SW 22:49:15 10° SSW
Cosmos 2082 Rocket 2.9 22:47:05 50° WSW 22:47:05 50° WSW 22:52:33 10° S
ARGOS 4.1 22:48:13 10° S 22:52:58 46° WSW 22:52:58 46° WSW
Lacrosse 4 Rocket 3.8 22:49:07 10° SSW 22:50:47 22° SSW 22:50:47 22° SSW
Cosmos 1697 Rocket 3.9 23:01:48 10° SSW 23:05:35 39° SW 23:05:35 39° SW
USA 215 4.3 23:10:22 10° SSE 23:16:30 42° SW 23:22:35 10° WNW
SL-16 R/B 4.2 23:13:45 10° S 23:16:05 20° SSE 23:16:05 20° SSE
Cosmos 2322 Rocket 4.3 23:41:24 10° S 23:43:34 22° S 23:43:34 22° S
USA 267 4.3 23:49:25 41° S 23:49:25 41° S 23:54:01 10° SW
